Tracking 35274 objects as of 11-Sep-2026
HD Live streaming from Space Station
objects crossing your sky now

SL-12 R/B(AUX MOTOR)


SL-12 R/B(AUX MOTOR) is no longer on orbit


NORAD ID: 15225
Int'l Code: 1984-090E
Launch date: August 24, 1984
Source: Commonwealth of Independent States (former USSR) (CIS)
Launch site: TYURATAM MISSILE AND SPACE COMPLEX (TTMTR)
Decay date: 1986-10-27

Note: This is a ROCKET BODY
Your satellite tracking list
Your tracking list is empty




NASA's NSSDC Master Catalog

Two Line Element Set (TLE):
1 15225U 84090  E 85095.59869453  .00189877 +49639-4 +35153-3 0  9997
2 15225 046.6804 214.5785 7202697 062.4814 351.9676 02.44816586005191
Source of the keplerian elements: AFSPC